CW5444 Weather Reports


Display with metric or nautical units.
time (UTC)temp
F
wind
direction
speed
MPH
gust
MPH
rain 1hr
in
rain 24hr
in
rain mn
in
humidity
%
barometer
mb
20260507130422 52 329 3.0 8.0 0.00 0.37 0.18 93 1012.2
20260507125430 52 341 2.0 5.0 0.00 0.48 0.18 93 1012.3
20260507124435 52 284 2.0 4.0 0.00 0.48 0.18 93 1012.3
20260507123421 52 292 1.0 3.0 0.00 0.48 0.18 93 1012.3
20260507122429 52 282 0.0 2.0 0.00 0.48 0.18 93 1012.3
20260507121419 52 281 0.0 2.0 0.00 0.48 0.18 93 1012.6
20260507120428 52 281 0.0 0.0 0.00 0.48 0.18 93 1012.7
20260507115416 52 281 1.0 2.0 0.00 0.61 0.18 93 1012.7
20260507114423 52 331 0.0 1.0 0.00 0.61 0.18 93 1012.6
20260507113428 52 331 1.0 2.0 0.00 0.61 0.18 93 1012.1
20260507112456 52 331 0.0 3.0 0.00 0.61 0.18 93 1012.2
20260507111420 52 344 2.0 6.0 0.01 0.61 0.18 93 1012.1
20260507110426 52 339 1.0 4.0 0.01 0.61 0.18 93 1012.1
20260507105434 52 258 0.0 3.0 0.01 0.69 0.18 93 1012.0
20260507104442 53 256 0.0 3.0 0.01 0.69 0.18 92 1012.0
20260507103428 53 224 0.0 3.0 0.01 0.69 0.18 93 1011.9
20260507102418 53 221 1.0 6.0 0.02 0.69 0.18 92 1011.9
20260507101424 54 201 2.0 5.0 0.01 0.68 0.17 93 1011.9
20260507100448 54 219 0.0 0.0 0.02 0.68 0.17 93 1011.7
20260507095432 54 219 0.0 0.0 0.02 0.68 0.17 93 1011.4
20260507094419 54 219 0.0 3.0 0.02 0.68 0.17 93 1011.6
20260507093424 54 236 1.0 2.0 0.02 0.68 0.17 93 1011.5
20260507092429 54 237 1.0 3.0 0.01 0.67 0.16 92 1011.2
20260507091433 54 254 1.0 4.0 0.01 0.67 0.16 92 1011.3
20260507090419 54 242 2.0 4.0 0.00 0.66 0.15 92 1011.7
20260507085426 54 206 0.0 5.0 0.00 0.66 0.15 93 1011.9
20260507084430 54 198 1.0 2.0 0.00 0.66 0.15 93 1011.4
20260507083440 54 198 0.0 4.0 0.00 0.66 0.15 93 1011.4
20260507082447 54 205 0.0 0.0 0.00 0.66 0.15 93 1011.7
20260507081433 55 173 0.0 0.0 0.00 0.66 0.15 93 1011.8
20260507080415 55 173 0.0 0.0 0.00 0.66 0.15 93 1011.5
20260507075420 55 173 0.0 0.0 0.00 0.66 0.15 93 1011.0
20260507074427 55 173 0.0 0.0 0.00 0.66 0.15 93 1011.6
20260507073433 55 173 0.0 0.0 0.03 0.66 0.15 93 1011.3
20260507072420 55 173 0.0 0.0 0.04 0.66 0.15 92 1011.3
20260507071428 55 148 0.0 3.0 0.11 0.66 0.15 93 1011.6
20260507070433 56 148 0.0 5.0 0.14 0.66 0.15 93 1011.8
20260507065422 56 194 0.0 3.0 0.14 0.66 0.15 93 1011.5
20260507064433 57 195 1.0 4.0 0.14 0.66 0.15 93 1011.8
20260507063420 57 219 2.0 6.0 0.11 0.63 0.12 92 1011.9
20260507062429 59 327 2.0 7.0 0.10 0.62 0.11 92 1011.7
20260507061434 60 187 3.0 8.0 0.03 0.55 0.04 94 1011.8
20260507060418 60 186 3.0 8.0 0.01 0.52 0.01 94 1011.9
20260507055421 60 178 3.0 7.0 0.01 0.52 0.01 94 1011.7
20260507054425 60 184 2.0 6.0 0.01 0.52 0.01 94 1011.8
20260507053431 60 179 1.0 5.0 0.01 0.52 0.01 93 1011.7
20260507052416 60 176 0.0 2.0 0.01 0.52 0.01 93 1011.8
20260507051424 60 177 0.0 2.0 0.00 0.51 0.00 93 1011.7
20260507050432 60 177 1.0 4.0 0.00 0.51 0.00 93 1012.3
20260507045418 60 155 1.0 6.0 0.00 0.51 0.00 93 1012.9
20260507044423 60 153 2.0 6.0 0.00 0.51 0.00 93 1012.9
20260507043429 60 167 2.0 8.0 0.00 0.51 0.00 93 1013.2
20260507042416 60 178 2.0 9.0 0.00 0.51 0.00 93 1013.2
20260507041425 60 178 2.0 6.0 0.00 0.51 0.00 93 1012.9
20260507040430 60 174 1.0 5.0 0.00 0.51 0.00 93 1012.7
20260507035415 60 181 1.0 5.0 0.00 0.51 0.51 93 1012.7
20260507034420 60 167 1.0 5.0 0.00 0.51 0.51 92 1012.5
20260507033427 60 152 1.0 6.0 0.01 0.51 0.51 92 1012.6
20260507032434 60 180 1.0 3.0 0.01 0.51 0.51 92 1012.6
20260507031419 60 167 1.0 4.0 0.01 0.51 0.51 92 1012.7
20260507030427 60 180 0.0 2.0 0.04 0.51 0.51 92 1012.7
20260507025432 60 167 1.0 4.0 0.08 0.51 0.51 92 1012.7
20260507024439 60 194 0.0 4.0 0.09 0.51 0.51 92 1012.7
20260507023444 61 190 2.0 8.0 0.08 0.50 0.50 91 1012.9
20260507022429 61 173 4.0 15.0 0.08 0.50 0.50 91 1013.4
20260507021415 61 204 5.0 9.0 0.09 0.50 0.50 91 1013.7
20260507020422 61 162 5.0 10.0 0.07 0.47 0.47 91 1013.8
20260507015426 62 167 4.0 8.0 0.03 0.43 0.43 91 1013.3
20260507014431 62 136 3.0 9.0 0.03 0.42 0.42 91 1013.4
20260507013437 62 182 4.0 11.0 0.03 0.42 0.42 91 1013.0
20260507012420 63 187 2.0 7.0 0.03 0.42 0.42 91 1013.0
20260507011429 63 178 3.0 9.0 0.02 0.41 0.41 90 1012.9
20260507010435 63 190 4.0 9.0 0.02 0.40 0.40 90 1012.9
20260507005420 63 155 2.0 6.0 0.02 0.40 0.40 90 1012.5
20260507004428 63 176 3.0 8.0 0.01 0.39 0.39 89 1012.2
20260507003432 64 161 1.0 5.0 0.01 0.39 0.39 88 1012.0
20260507002454 64 187 1.0 6.0 0.01 0.39 0.39 87 1011.8
20260507001419 65 171 0.0 4.0 0.01 0.39 0.39 86 1011.8
20260507000427 65 185 2.0 7.0 0.00 0.38 0.38 84 1012.1
20260506235430 66 188 1.0 5.0 0.00 0.38 0.38 83 1012.1
20260506234417 66 167 2.0 7.0 0.00 0.38 0.38 83 1011.9
20260506233424 66 183 1.0 4.0 0.00 0.38 0.38 83 1012.0
20260506232416 66 180 1.0 4.0 0.00 0.38 0.38 83 1011.9
20260506231423 66 193 3.0 6.0 0.00 0.38 0.38 82 1011.7
20260506230430 66 194 3.0 7.0 0.00 0.38 0.38 82 1011.9
20260506225418 67 177 2.0 8.0 0.00 0.38 0.38 81 1012.1
20260506224426 67 157 2.0 5.0 0.00 0.38 0.38 82 1012.1
20260506223450 67 171 3.0 7.0 0.00 0.38 0.38 81 1012.0
20260506222416 67 174 4.0 8.0 0.00 0.38 0.38 82 1012.0
20260506221424 67 136 2.0 8.0 0.00 0.38 0.38 81 1012.0
20260506220453 67 189 3.0 5.0 0.00 0.38 0.38 81 1011.9
20260506215420 67 190 3.0 14.0 0.00 0.38 0.38 81 1012.1
20260506214427 67 180 5.0 12.0 0.00 0.38 0.38 81 1012.6
20260506213435 67 173 6.0 10.0 0.00 0.38 0.38 81 1012.4
20260506212421 66 205 5.0 9.0 0.00 0.38 0.38 82 1012.3
20260506211428 66 193 5.0 12.0 0.00 0.38 0.38 82 1012.2
20260506210435 66 175 6.0 13.0 0.00 0.38 0.38 82 1012.2
20260506205424 66 150 5.0 10.0 0.00 0.38 0.38 82 1012.3
20260506204430 66 185 5.0 12.0 0.00 0.38 0.38 82 1012.3
20260506203418 66 180 5.0 10.0 0.00 0.38 0.38 82 1012.1
20260506202420 66 189 5.0 11.0 0.00 0.38 0.38 82 1012.1
20260506201443 66 196 4.0 11.0 0.00 0.38 0.38 82 1012.1
20260506200430 66 169 7.0 16.0 0.00 0.38 0.38 81 1012.5
20260506195422 67 183 8.0 16.0 0.00 0.38 0.38 80 1012.4
20260506194431 67 121 8.0 19.0 0.00 0.38 0.38 81 1012.5
20260506193420 66 200 7.0 14.0 0.00 0.38 0.38 83 1012.6
20260506192427 67 181 8.0 17.0 0.00 0.38 0.38 82 1012.5
20260506191455 67 182 5.0 12.0 0.00 0.38 0.38 82 1012.3
20260506190442 67 157 4.0 11.0 0.00 0.38 0.38 83 1012.3
20260506185430 67 198 6.0 14.0 0.00 0.38 0.38 84 1012.3
20260506184431 66 171 6.0 17.0 0.00 0.38 0.38 85 1012.2
20260506183419 66 190 5.0 11.0 0.00 0.38 0.38 86 1012.0
20260506182428 66 185 6.0 16.0 0.00 0.38 0.38 86 1012.1
20260506181433 65 184 7.0 17.0 0.00 0.38 0.38 87 1012.0
20260506180423 64 171 4.0 10.0 0.00 0.38 0.38 90 1012.0
20260506175451 63 193 5.0 13.0 0.00 0.38 0.38 90 1012.3
20260506174420 63 142 3.0 14.0 0.00 0.38 0.38 91 1012.5
20260506173427 63 180 5.0 10.0 0.00 0.38 0.38 92 1012.4
20260506172434 62 196 6.0 12.0 0.00 0.38 0.38 92 1012.5
20260506171422 61 193 3.0 10.0 0.00 0.38 0.38 92 1012.8
20260506170430 61 178 3.0 11.0 0.00 0.38 0.38 92 1012.9
20260506165417 61 158 2.0 6.0 0.01 0.38 0.38 92 1013.2
20260506164423 60 134 0.0 6.0 0.01 0.38 0.38 92 1013.2
20260506163430 60 162 2.0 5.0 0.02 0.38 0.38 92 1013.8
20260506162420 60 159 1.0 3.0 0.03 0.38 0.38 92 1014.1
20260506161429 59 172 0.0 4.0 0.03 0.38 0.38 92 1014.0
20260506160435 59 221 0.0 0.0 0.03 0.38 0.38 92 1014.2
20260506155423 59 235 0.0 0.0 0.03 0.37 0.37 92 1014.2
20260506154429 59 239 0.0 0.0 0.03 0.37 0.37 92 1014.1
20260506153416 59 256 0.0 0.0 0.03 0.36 0.36 92 1014.0
20260506152445 59 257 0.0 0.0 0.02 0.35 0.35 92 1013.7
20260506151452 59 257 0.0 0.0 0.02 0.35 0.35 92 1013.5
20260506150436 59 257 0.0 0.0 0.02 0.35 0.35 92 1013.2
20260506145424 59 257 0.0 0.0 0.01 0.34 0.34 92 1013.1
20260506144450 58 257 0.0 0.0 0.01 0.34 0.34 92 1013.1
20260506143418 58 258 0.0 0.0 0.00 0.33 0.33 92 1013.1
20260506142429 58 258 0.0 0.0 0.00 0.33 0.33 92 1013.0
20260506141416 58 259 0.0 0.0 0.00 0.33 0.33 92 1013.0
20260506140425 58 259 0.0 0.0 0.00 0.33 0.33 92 1012.9
20260506135432 58 259 0.0 0.0 0.02 0.33 0.33 92 1013.0
20260506134417 58 259 0.0 0.0 0.03 0.33 0.33 92 1012.8
20260506133424 58 259 0.0 0.0 0.06 0.33 0.33 92 1012.8
20260506132431 57 259 0.0 0.0 0.09 0.33 0.33 92 1012.9
20260506131420 57 259 0.0 0.0 0.10 0.33 0.33 91 1013.3